Location: Epalinges
(46.5518°N, 6.6683°E)
Time: 14:39:31
(UTC+00:00)

Cosmos 1656 Rocket - Pass Details

Date: 20 June 2021
Orbit: 794 x 847 km, 71.1° (Epoch: 31 July)

Event Time Altitude Azimuth Distance (km) Brightness Sun altitude
Rises 00:18:00 0° 334° (NNW) 3,420 7.7 -19.3°
Reaches altitude 10° 00:20:28 10° 337° (NNW) 2,481 6.9 -19.3°
Maximum altitude 00:26:10 70° 61° (ENE) 901 3.9 -19.1°
Enters shadow 00:30:23 18° 143° (SE) 1,933 5.2 -18.9°
